• In Deutschland
  • Länderverzeichnis
  • Für 7 Tage
  • Wassertemperatur
  • Satellitenkarten
  • Wetterkarte
  • Widgets
  • user-avatar
    Anmelden

    Stündliche Wetter Naschawar

    Heute, 27 Juli, Donnerstag

    Zeit Temperatur Niederschläge Wind Luftdruck Luftfeuchtigkeit
    00:00 +37°C° 0,2 mm 2 m/S 723 mmHg 49%
    01:00 +36°C° 0,2 mm 2 m/S 723 mmHg 50%
    02:00 +36°C° 0,2 mm 2 m/S 723 mmHg 52%
    03:00 +35°C° 0,5 mm 2 m/S 723 mmHg 54%
    04:00 +35°C° 0,5 mm 2 m/S 723 mmHg 55%
    05:00 +34°C° 0,5 mm 1 m/S 723 mmHg 56%
    06:00 +34°C° 0,2 mm 1 m/S 723 mmHg 55%
    07:00 +34°C° 0,2 mm 1 m/S 723 mmHg 53%
    08:00 +35°C° 0,2 mm 1 m/S 724 mmHg 51%
    09:00 +36°C° 0,1 mm 1 m/S 724 mmHg 48%
    10:00 +37°C° 0,1 mm 1 m/S 724 mmHg 44%
    11:00 +39°C° 0,1 mm 1 m/S 723 mmHg 41%
    12:00 +40°C° 0 mm 1 m/S 723 mmHg 38%
    13:00 +41°C° 0 mm 2 m/S 723 mmHg 35%
    14:00 +42°C° 0 mm 2 m/S 722 mmHg 33%
    15:00 +42°C° 0 mm 2 m/S 722 mmHg 32%
    16:00 +43°C° 0 mm 2 m/S 721 mmHg 31%
    17:00 +43°C° 0 mm 2 m/S 721 mmHg 30%
    18:00 +43°C° 0,1 mm 3 m/S 721 mmHg 32%
    19:00 +42°C° 0,1 mm 3 m/S 721 mmHg 33%
    20:00 +42°C° 0,1 mm 3 m/S 722 mmHg 35%
    21:00 +40°C° 0,1 mm 3 m/S 722 mmHg 37%
    22:00 +40°C° 0,1 mm 2 m/S 722 mmHg 39%
    23:00 +39°C° 0,1 mm 2 m/S 723 mmHg 41%

    Morgen, 28 Juli, Freitag

    Zeit Temperatur Niederschläge Wind Luftdruck Luftfeuchtigkeit
    00:00 +38°C° 0 mm 2 m/S 723 mmHg 42%
    01:00 +38°C° 0 mm 2 m/S 723 mmHg 44%
    02:00 +37°C° 0 mm 2 m/S 723 mmHg 46%
    03:00 +37°C° 0 mm 2 m/S 723 mmHg 47%
    04:00 +37°C° 0 mm 2 m/S 723 mmHg 49%
    05:00 +35°C° 0 mm 1 m/S 723 mmHg 50%
    06:00 +36°C° 0 mm 1 m/S 723 mmHg 49%
    07:00 +36°C° 0 mm 1 m/S 724 mmHg 47%
    08:00 +37°C° 0 mm 1 m/S 724 mmHg 46%
    09:00 +39°C° 0 mm 2 m/S 724 mmHg 43%
    10:00 +40°C° 0 mm 2 m/S 724 mmHg 40%
    11:00 +41°C° 0 mm 2 m/S 724 mmHg 37%
    12:00 +41°C° 0 mm 2 m/S 723 mmHg 34%
    13:00 +42°C° 0 mm 2 m/S 723 mmHg 32%
    14:00 +43°C° 0 mm 2 m/S 723 mmHg 30%
    15:00 +43°C° 0 mm 2 m/S 723 mmHg 29%
    16:00 +45°C° 0 mm 3 m/S 722 mmHg 29%
    17:00 +45°C° 0 mm 3 m/S 722 mmHg 28%
    18:00 +44°C° 0 mm 3 m/S 722 mmHg 30%
    19:00 +43°C° 0 mm 3 m/S 723 mmHg 32%
    20:00 +43°C° 0 mm 4 m/S 723 mmHg 34%
    21:00 +42°C° 0,1 mm 4 m/S 723 mmHg 36%
    22:00 +42°C° 0,1 mm 4 m/S 724 mmHg 38%
    23:00 +40°C° 0,1 mm 3 m/S 724 mmHg 40%

    übermorgen, 29 Juli, Samstag

    Zeit Temperatur Niederschläge Wind Luftdruck Luftfeuchtigkeit
    00:00 +40°C° 0,5 mm 4 m/S 724 mmHg 44%
    01:00 +38°C° 0,5 mm 4 m/S 724 mmHg 49%
    02:00 +37°C° 0,5 mm 4 m/S 724 mmHg 53%
    03:00 +36°C° 0,9 mm 3 m/S 724 mmHg 57%
    04:00 +36°C° 0,9 mm 3 m/S 724 mmHg 60%
    05:00 +35°C° 0,9 mm 2 m/S 723 mmHg 64%
    06:00 +35°C° 0,3 mm 2 m/S 724 mmHg 63%
    07:00 +35°C° 0,3 mm 2 m/S 724 mmHg 62%
    08:00 +35°C° 0,3 mm 2 m/S 724 mmHg 61%
    09:00 +37°C° 0,1 mm 2 m/S 724 mmHg 57%
    10:00 +38°C° 0,1 mm 2 m/S 724 mmHg 52%
    11:00 +39°C° 0,1 mm 2 m/S 724 mmHg 47%
    12:00 +40°C° 0 mm 2 m/S 723 mmHg 44%
    13:00 +41°C° 0 mm 2 m/S 723 mmHg 42%
    14:00 +42°C° 0 mm 2 m/S 722 mmHg 39%
    15:00 +42°C° 0 mm 2 m/S 722 mmHg 38%
    16:00 +43°C° 0 mm 3 m/S 722 mmHg 37%
    17:00 +44°C° 0 mm 3 m/S 721 mmHg 36%
    18:00 +43°C° 0 mm 3 m/S 722 mmHg 38%
    19:00 +42°C° 0 mm 4 m/S 722 mmHg 39%
    20:00 +42°C° 0 mm 4 m/S 722 mmHg 41%
    21:00 +41°C° 0,1 mm 4 m/S 722 mmHg 44%
    22:00 +39°C° 0,1 mm 3 m/S 723 mmHg 47%
    23:00 +38°C° 0,1 mm 3 m/S 723 mmHg 50%

    30 Juli, Sonntag

    Zeit Temperatur Niederschläge Wind Luftdruck Luftfeuchtigkeit
    00:00 +38°C° 0,6 mm 3 m/S 722 mmHg 52%
    01:00 +37°C° 0,6 mm 2 m/S 722 mmHg 55%
    02:00 +37°C° 0,6 mm 2 m/S 722 mmHg 57%
    03:00 +36°C° 0,3 mm 2 m/S 722 mmHg 59%
    04:00 +36°C° 0,3 mm 2 m/S 722 mmHg 61%
    05:00 +34°C° 0,3 mm 1 m/S 722 mmHg 62%
    06:00 +35°C° 0 mm 1 m/S 722 mmHg 61%
    07:00 +35°C° 0 mm 1 m/S 722 mmHg 59%
    08:00 +35°C° 0 mm 1 m/S 722 mmHg 58%
    09:00 +37°C° 0 mm 1 m/S 722 mmHg 52%
    10:00 +39°C° 0 mm 1 m/S 722 mmHg 47%
    11:00 +40°C° 0 mm 1 m/S 722 mmHg 41%
    12:00 +41°C° 0 mm 2 m/S 721 mmHg 38%
    13:00 +42°C° 0 mm 2 m/S 721 mmHg 35%
    14:00 +43°C° 0 mm 2 m/S 720 mmHg 32%
    15:00 +45°C° 0 mm 3 m/S 720 mmHg 32%
    16:00 +45°C° 0 mm 3 m/S 720 mmHg 31%
    17:00 +45°C° 0 mm 3 m/S 720 mmHg 31%
    18:00 +44°C° 0 mm 4 m/S 720 mmHg 34%
    19:00 +43°C° 0 mm 5 m/S 721 mmHg 37%
    20:00 +42°C° 0 mm 6 m/S 721 mmHg 41%
    21:00 +40°C° 0,8 mm 6 m/S 722 mmHg 49%
    22:00 +37°C° 0,8 mm 5 m/S 722 mmHg 56%
    23:00 +35°C° 0,8 mm 5 m/S 722 mmHg 64%

    31 Juli, Montag

    Zeit Temperatur Niederschläge Wind Luftdruck Luftfeuchtigkeit
    00:00 +35°C° 0,9 mm 4 m/S 722 mmHg 67%
    01:00 +34°C° 0,9 mm 4 m/S 722 mmHg 70%
    02:00 +33°C° 0,9 mm 3 m/S 722 mmHg 74%
    03:00 +33°C° 0,4 mm 3 m/S 722 mmHg 75%
    04:00 +33°C° 0,4 mm 3 m/S 722 mmHg 76%
    05:00 +31°C° 0,4 mm 2 m/S 722 mmHg 77%
    06:00 +31°C° 0,1 mm 2 m/S 723 mmHg 76%
    07:00 +32°C° 0,1 mm 2 m/S 723 mmHg 74%
    08:00 +32°C° 0,1 mm 2 m/S 723 mmHg 73%
    09:00 +34°C° 0,1 mm 2 m/S 723 mmHg 68%
    10:00 +35°C° 0,1 mm 2 m/S 723 mmHg 63%
    11:00 +36°C° 0,1 mm 3 m/S 723 mmHg 57%
    12:00 +37°C° 0 mm 3 m/S 723 mmHg 54%
    13:00 +38°C° 0 mm 3 m/S 722 mmHg 51%
    14:00 +39°C° 0 mm 3 m/S 722 mmHg 48%
    15:00 +39°C° 0 mm 3 m/S 722 mmHg 48%
    16:00 +40°C° 0 mm 4 m/S 722 mmHg 47%
    17:00 +40°C° 0 mm 4 m/S 722 mmHg 47%
    18:00 +38°C° 0 mm 3 m/S 722 mmHg 49%
    19:00 +38°C° 0 mm 3 m/S 723 mmHg 51%
    20:00 +37°C° 0 mm 3 m/S 723 mmHg 53%
    21:00 +37°C° 0,2 mm 3 m/S 723 mmHg 55%
    22:00 +36°C° 0,2 mm 3 m/S 723 mmHg 57%
    23:00 +36°C° 0,2 mm 2 m/S 724 mmHg 59%

    1 August, Dienstag

    Zeit Temperatur Niederschläge Wind Luftdruck Luftfeuchtigkeit
    00:00 +35°C° 0,5 mm 2 m/S 723 mmHg 60%
    01:00 +35°C° 0,5 mm 2 m/S 723 mmHg 62%
    02:00 +34°C° 0,5 mm 1 m/S 722 mmHg 64%
    03:00 +33°C° 0,3 mm 1 m/S 722 mmHg 65%
    04:00 +33°C° 0,3 mm 1 m/S 722 mmHg 67%
    05:00 +33°C° 0,3 mm 1 m/S 722 mmHg 68%
    06:00 +33°C° 0,4 mm 1 m/S 722 mmHg 66%
    07:00 +33°C° 0,4 mm 1 m/S 723 mmHg 63%
    08:00 +34°C° 0,4 mm 1 m/S 723 mmHg 61%
    09:00 +35°C° 0,2 mm 1 m/S 723 mmHg 54%
    10:00 +36°C° 0,2 mm 1 m/S 723 mmHg 48%
    11:00 +39°C° 0,2 mm 1 m/S 722 mmHg 42%
    12:00 +39°C° 0 mm 1 m/S 722 mmHg 39%
    13:00 +40°C° 0 mm 2 m/S 721 mmHg 36%
    14:00 +41°C° 0 mm 2 m/S 721 mmHg 34%
    15:00 +43°C° 0 mm 3 m/S 721 mmHg 34%
    16:00 +43°C° 0 mm 3 m/S 720 mmHg 34%
    17:00 +43°C° 0 mm 3 m/S 720 mmHg 34%
    18:00 +42°C° 0 mm 3 m/S 721 mmHg 37%
    19:00 +40°C° 0 mm 3 m/S 721 mmHg 40%
    20:00 +41°C° 0 mm 4 m/S 721 mmHg 42%
    21:00 +39°C° 0,1 mm 3 m/S 721 mmHg 44%
    22:00 +39°C° 0,1 mm 3 m/S 722 mmHg 46%
    23:00 +38°C° 0,1 mm 3 m/S 722 mmHg 48%
    Mehr zeigen